Regional Weather Roundup
Issued by NWS

Home | Current Version | Previous Version | Text Only | Print | Product List | Glossary On
Versions: 1 2 3 4 5 6 7 8 9 10 11 12 13 14 15 16 17 18 19 20 21 22 23 24 25 26 27 28 29 30 31 32 33 34 35 36 37 38 39 40 41 42 43 44 45 46 47 48 49 50
000
ASUS46 KSEW 230810
RWRWA

WASHINGTON REGIONAL WEATHER ROUNDUP
NATIONAL WEATHER SERVICE SEATTLE WA
100 AM PDT FRI JUN 23 2017

NOTE:"FAIR" INDICATES FEW OR NO CLOUDS BELOW 12,000 FEET WITH NO
SIGNIFICANT WEATHER AND/OR OBSTRUCTIONS TO VISIBILITY.

WAZ507-509-555>559-230900-
SEATTLE, TACOMA, EVERETT, AND VICINITY

CITY           SKY/WX    TMP DP  RH WIND       PRES   REMARKS
EVERETT        CLEAR     55  47  74 NW3       30.25R
BOEING FIELD   CLEAR     62  51  67 CALM      30.23S
RENTON         CLEAR     60  53  77 N3        30.23R
SEATAC AIRPORT CLEAR     62  46  55 NE9       30.24R
JBLM-MCCHORD   CLEAR     51  46  84 CALM      30.23R
PUYALLUP       FAIR      50  46  87 CALM      30.24R
BREMERTON      CLEAR     55  43  63 NE6       30.24S
JBLM-FT LEWIS  CLEAR     53  46  78 CALM      30.22S
TACOMA NARROWS CLEAR     61  42  49 NE5       30.23R
$$

WAZ001-503-506-510-514-515-230900-
NORTH INTERIOR

CITY           SKY/WX    TMP DP  RH WIND       PRES   REMARKS
BELLINGHAM     CLEAR     53  49  86 CALM      30.23S
FRIDAY HARBOR  CLEAR     49  46  90 CALM      30.25R
EASTSOUND      CLEAR     54  46  76 S3        30.24S
PORT ANGELES   CLEAR     50  45  83 SE3       30.26R
EDIZ HOOK      FAIR      54  48  81 CALM      30.26S
PORT TOWNSEND    N/A     48  46  93 W3        30.25S
NAS WHIDBEY    CLEAR     51  45  79 SE3       30.29R
ARLINGTON      NOT AVBL
BURLINGTON     CLEAR     52  48  87 CALM      30.24F
$$

WAZ020-022-039-040-504-511-512-230900-
SOUTHWEST INTERIOR

CITY           SKY/WX    TMP DP  RH WIND       PRES   REMARKS
SHELTON        CLEAR     53  49  86 CALM      30.21S
OLYMPIA        CLEAR     53  46  77 CALM      30.23R
CHEHALIS       FAIR      54  48  82 CALM      30.22S
KELSO          CLEAR     62  39  42 NW7       30.19S
VANCOUVER      CLEAR     67  38  34 NW8       30.14R
SCAPPOOSE, OR  CLEAR     67  35  30 NW10      30.15R
PORTLAND, OR   CLEAR     65  38  36 NW6       30.15R
$$

WAZ021-516-517-230900-
WASHINGTON COAST

CITY           SKY/WX    TMP DP  RH WIND       PRES   REMARKS
FORKS          CLEAR     51  47  86 CALM      30.24F
HOQUIAM        CLEAR     54  52  93 CALM      30.23F
ASTORIA, OR    CLEAR     57  51  80 NW15      30.21F
$$

WAZ019-023-024-040-567>569-230900-
CASCADE MOUNTAINS AND COLUMBIA GORGE

CITY           SKY/WX    TMP DP  RH WIND       PRES   REMARKS
STAMPEDE PASS  CLEAR     50  42  74 W3        30.29S
TROUTDALE, OR  CLEAR     60  51  72 CALM      30.14R
HOOD RIVER, OR SUNNY     55  45  67 S3        30.17S
THE DALLES, OR CLEAR     61  43  51 SE3       30.15R
$$

WAZ026-027-041>044-520-521-230900-
EAST SLOPES

CITY           SKY/WX    TMP DP  RH WIND       PRES   REMARKS
OMAK           CLEAR     59  37  44 NW13      30.22R
WENATCHEE      CLEAR     66  37  34 NW3       30.18R
ELLENSBURG     CLEAR     57  40  52 CALM      30.21R
YAKIMA         CLEAR     54  44  69 W8        30.19S
SUNNYSIDE ARPT SUNNY     52  44  72 CALM      30.17R
$$

WAZ028-034-035-230900-
COLUMBIA BASIN

CITY           SKY/WX    TMP DP  RH WIND       PRES   REMARKS
EPHRATA        CLEAR     64  32  30 NW8       30.17S
MOSES LAKE     CLEAR     56  39  53 N6        30.18R
PASCO          CLEAR     58  44  60 E3        30.16R
RICHLAND ARPT  SUNNY     58  45  62 CALM      30.15S
HERMISTON, OR  CLEAR     53  41  63 SE5       30.15R
$$

WAZ036>038-230900-
NORTHEAST WASHINGTON

CITY           SKY/WX    TMP DP  RH WIND       PRES   REMARKS
SPOKANE GEIGER CLEAR     58  38  47 W6        30.21S
SPOKANE FELTS  CLEAR     54  40  59 NE3       30.21R
FAIRCHILD AFB  CLEAR     54  34  47 CALM      30.21R
COEURDALENE,ID CLEAR     52  42  69 CALM      30.22R
DEER PARK      CLEAR     46  37  71 CALM      30.22R
$$

WAZ029>033-230900-
SOUTHEAST WASHINGTON

CITY           SKY/WX    TMP DP  RH WIND       PRES   REMARKS
PULLMAN        CLEAR     48  39  71 CALM      30.23S
LEWISTON, ID   CLEAR     55  38  52 S6        30.19R
WALLA WALLA    CLEAR     60  41  49 E12       30.17S
PENDLETON, OR  CLEAR     56  41  57 SE7       30.18R
$$



USA.gov is the U.S. government's official web portal to all federal, state and local government web resources and services.